CZ-6A DEB, 54634

Orbit data source: Space-Track

CZ-6A DEB, 54634 is space debris in SSO originally from a launch on Fri, 11 Nov 2022 UTC launched from the Taiyaun Space Center, China (TSC). Debris objects in space refer to the collection of defunct objects orbiting the Earth. Examples of debris include non-operational satellites, rocket bodies, and fragments generated from explosions, collisions, or faulty payload assembly.

Loading next visibility...
Identifier
54634, 2022-151PL
Orbit
SSO
Country
Flag of CNCN / PRC
Related business
Manufacturer
SAST
Mission
Spacecraft
Bus & Motor
Unknown
Mass
Unknown
Launch date (UTC)
2022-11-11 (4 years ago)
Launch vehicle
Unknown
Launch site
Taiyaun Space Center, China (TSC)
Object type
Payload
Rocket body
Debris
Shape & HBR
Unknown shape, 0.1 m
Radar Cross Section
Medium (>0.1 m² and <1 m²)

Expand to show TLE details & history
Last TLE update: 2 days ago

TLE from 2 days ago
0 CZ-6A DEB
1 54634U 22151PL  26234.57955677  .00004630  00000-0  16656-2 0  9990
2 54634  98.7758 254.0059 0034374  85.7308 274.7802 14.33915145194690
Epoch: 2026-08-22T13:54Z
TLE epoch observation values (Epoch: 2026-08-22T13:54:33.704Z)
Latitude
-0.00013°
Longitude
74.47755°
Altitude
779.639 km
Speed
7.465 km/s
True Right ascension
16h 56m 01s
True Declination
0° 00' 00"
Sunlit
Object was in daylight at epoch
Visualization orbit readout
Latitude
Unknown
Longitude
Unknown
Altitude
Unknown
Speed
Unknown
Apparent Right ascension
Unknown
Apparent Declination
Unknown
Sunlit
N/A
Visualization observer readout
Local Sidereal Time
19:34:22
Azimuth
Unknown
Elevation
Unknown
Doppler factor
Unknown
Orbital elements
Apogee altitude
800.408 km
Perigee altitude
751.226 km
Semi-major axis
7,153.954 km
Eccentricity
0.00344
Inclination
98.7758°
RAAN
254.0059°
Arg. of periapsis
85.7308°
True anomaly
274.38754°
Mean anomaly
274.7802°
Eccentric anomaly
274.58388°
Mean motion
3.58694 °/min
Orbital period
100.36 mins
BSTAR
0.0016656
Loading maneuver chart data...
Computing Atmospheric mass density...
Loading historical data...
Loading historical data...
Loading historical data...
Loading historical data...
Loading historical data...
Loading historical data...
Loading historical data...

Documentation

Showing up to 5 results
|